Orbital Elements at Epoch 2459200.5 (2020-Dec-17.0) TDB
Reference: JPL 18 (heliocentric ecliptic J2000)
Element | Value | Uncertainty (1-sigma) | Units |
e | .1844880741752191 | 5.4501e-08 | |
a | 2.712250386966559 | 2.3377e-08 | au |
q | 2.211872536394106 | 1.5521e-07 | au |
i | 10.09644241462544 | 6.3804e-06 | deg |
node | 170.0333038408679 | 3.193e-05 | deg |
peri | 187.0248379090213 | 3.684e-05 | deg |
M | 79.81730390215797 | 1.697e-05 | deg |
tp | 2458838.767400118882 (2019-Dec-21.26740012) | 7.5703e-05 | TDB |
period | 1631.522609644071 4.47 | 2.1093e-05 5.775e-08 | d yr |
n | .2206527803366064 | 2.8527e-09 | deg/d |
Q | 3.212628237539012 | 2.769e-08 | au |
|
| | Orbit Determination Parameters
Additional Information
|